Regional Weather Roundup
Issued by NWS Cleveland, OH

Home | Current Version | Previous Version | Graphics & Text | Print | Product List | Glossary On
Versions: 1 2 3 4 5 6 7 8 9 10 11 12 13 14 15 16 17 18 19 20 21 22 23 24 25 26 27 28 29 30 31 32 33 34 35 36 37 38 39 40 41 42 43 44 45 46 47 48 49 50
000
ASUS41 KCLE 280010
RWRCLE
OHIO REGIONAL WEATHER ROUNDUP
NATIONAL WEATHER SERVICE WILMINGTON, OH
800 PM EDT WED AUG 27 2014

NOTE: "FAIR" INDICATES FEW OR NO CLOUDS BELOW 12,000 FEET WITH NO
SIGNIFICANT WEATHER AND/OR OBSTRUCTIONS TO VISIBILITY.

OHZ001>008-015>018-024>027-034-035-043-044-280100-
   NORTHWEST OHIO

CITY           SKY/WX    TMP DP  RH WIND       PRES   REMARKS
DEFIANCE       MOCLDY    76  60  57 N8        30.07R
FINDLAY        PTCLDY    77  65  66 NE12      30.05R
TOLEDO EXPRESS CLOUDY    74  61  63 N12       30.07R
TOLEDO METCALF MOCLDY    74  63  68 NE5       30.08R
LIMA           PTCLDY    77  65  66 N6        30.06S
$$

OHZ009>014-019>023-028>033-038-089-280100-
   NORTHEAST OHIO

CITY           SKY/WX    TMP DP  RH WIND       PRES   REMARKS
CLE-HOPKINS    MOCLDY    70  62  76 N6        30.08S
CLE-LAKEFRONT  MOCLDY    71  62  73 N6        30.04F
CUY CO. ARPT   MOCLDY    70  64  83 N9        30.08S
LORAIN-ELYRIA  MOCLDY    71  63  75 N5        30.07F
ASHTABULA      PTCLDY    66  59  78 CALM      30.07S
AKRON-CANTON   MOCLDY    71  61  70 N10       30.06R
WOOSTER        PTCLDY    70  63  78 N7        30.08R
MANSFIELD      PTCLDY    70  62  76 N9        30.08S
YOUNGSTOWN     MOCLDY    69  60  73 N8        30.06R
$$

OHZ042-051>053-060>062-070>072-077>081-280100-
  SOUTHWEST OHIO

CITY           SKY/WX    TMP DP  RH WIND       PRES   REMARKS
CINC-COVINGTON MOCLDY    85  69  58 NW6       30.03R
CINC-LUNKEN    PTCLDY    86  69  56 NW6       30.01R HX  90
HAMILTON       CLEAR     83  72  69 N8        30.03R
DAYTON         PTCLDY    80  70  71 N6        30.06R
WRIGHT-PAT AFB CLEAR     82  71  68 N5        30.04R
DAYTON GENERAL PTCLDY    82  70  66 N9        30.04R
WILMINGTON     CLEAR     81  70  69 N9        30.03R
$$

OHZ036-037-039>041-045>050-054>059-063>069-073>076-082>088-280100-
  CENTRAL AND SOUTHEAST OHIO

CITY           SKY/WX    TMP DP  RH WIND       PRES   REMARKS
COLUMBUS       PTCLDY    82  68  62 N9        30.01S
OSU AIRPORT    PTCLDY    79  68  69 N9        30.03R
BOLTON FIELD   CLEAR     79  71  77 NW8       30.03R
RICKENBACK AFB CLEAR     79  69  69 NW5       30.01R
NEWARK         CLEAR     79  68  69 N3        30.02R
MARION         PTCLDY    73  66  78 NE9       30.05S
LANCASTER      CLEAR     77  72  84 CALM      30.02R
ZANESVILLE     MOCLDY    77  71  82 E6        30.02R
NEW PHILLY     CLEAR     75  68  78 N7        30.04R
$$


USA.gov is the U.S. government's official web portal to all federal, state and local government web resources and services.